{"data":{"norad_id":54000,"intl_designator":"2022-125AN","name":"STARLINK-5088","alt_names":[],"object_type":"PAYLOAD","status":"ACTIVE","operator":null,"country":"US","launch_date":"2022-10-05","launch_site_code":"AFWTR","launch_vehicle":null,"mission":null,"orbit_class":"UNKNOWN","rcs_meters":null,"size_class":null,"mass_kg":null,"dimensions":null,"purposes":["comms"],"wikipedia_slug":null,"has_3d_model":false,"image_url":null,"decayed_at":null,"tle_current":{"epoch":"2026-05-25T05:16:19.513920Z","epoch_age_seconds":50003,"freshness":"FRESH","line1":"1 54000U 22125AN  26145.21967030 -.00013986  00000+0 -86076-3 0  9995","line2":"2 54000  53.2134 220.7507 0001468  76.5621 283.5535 15.08906912201159","mean_motion":15.08906912,"eccentricity":0.0001468,"inclination_deg":53.2134,"raan_deg":220.7507,"arg_perigee_deg":76.5621,"mean_anomaly_deg":283.5535,"bstar":-0.00086076,"rev_number":20115,"period_min":95.433322529574,"perigee_km":538.52335848843,"apogee_km":540.55438812483,"semimajor_km":6917.6758733066,"source":"CELESTRAK","updated_at":"2026-05-25T13:38:17.624004Z"}}}